Powrót do katalogu

FENGYUN 1C DEB

AktywnySSO
NORAD 38809·DEBRIS·🇨🇳 China

Wystrzelony May 10, 1999 z Taiyuan Satellite Launch Center

Loading…

Następne Przeloty (najbliższe 24 godziny)

TLE

ŚwieżeSource: Space-Track

Epoka: Sep 14, 2026, 06:14 UTC

1 38809U 99025EUZ 26257.25981622  .00000631  00000-0  25637-3 0  9996
2 38809  98.5880 263.9336 0220050 252.3675 105.3363 14.18842394731128

Śledź FENGYUN 1C DEB w czasie rzeczywistym z AllMySat

Download on the App Store